Weather History for LGTS - February, 2013

Change the Weather History Date:

Sunday, February 17, 2013

  Actual Average Record
Temperature  
Mean Temperature 44 °F -  
Max Temperature 50 °F 55 °F 62 °F (1998)
Min Temperature 37 °F 38 °F 24 °F (2009)
Degree Days  
Heating Degree Days 22    
Moisture  
Dew Point 36 °F    
Average Humidity 70    
Maximum Humidity 87    
Minimum Humidity 48    
Precipitation  
Precipitation 0.00 in 0.06 in - ()
Sea Level Pressure  
Sea Level Pressure 30.09 in    
Wind  
Wind Speed 5 mph ()    
Max Wind Speed 12 mph    
Max Gust Speed -    
Visibility 6.2 miles    
Events Rain    
Averages and records for this station are not official NWS values.
T = Trace of Precipitation, MM = Missing Value Source: Averaged Metar Reports

Daily Weather History Graph

Daily Weather History Graph

Search for Another Location

Airport or City:

Trip Planner

Search our weather history database for the weather conditions in past years. The results will help you decide how hot, cold, wet, or windy it might be!

Date:

Astronomy

Feb. 17, 2013 Rise Set
Actual Time 7:19 AM EET 6:05 PM EET
Civil Twilight 6:51 AM EET 6:33 PM EET
Nautical Twilight 6:19 AM EET 7:05 PM EET
Astronomical Twilight 5:47 AM EET 7:37 PM EET
Moon 10:57 AM EET (2/17) 12:45 AM EET (2/17)
Length of Visible Light 11h 42m
Length of Day
10h 46m
Waxing Crescent, 46% of the Moon is Illuminated
Feb 17
Waxing Crescent
Feb 17
First Quarter
Feb 25
Full
Mar 4
Last Quarter
Mar 11
New

Hourly Weather History & Observations

Time (EET) Temp. Windchill Dew Point Humidity Pressure Visibility Wind Dir Wind Speed Gust Speed Precip Events Conditions
12:20 AM 44.6 °F 42.2 °F 39.2 °F 81% 30.09 in 6.2 mi East 4.6 mph - N/A Rain Light Rain
12:50 AM 44.6 °F 43.1 °F 39.2 °F 81% 30.09 in 6.2 mi Variable 3.5 mph - N/A   Drizzle
1:20 AM 44.6 °F 42.2 °F 39.2 °F 81% 30.09 in 6.2 mi SSE 4.6 mph - N/A   Overcast
1:50 AM 44.6 °F 41.4 °F 37.4 °F 76% 30.09 in 6.2 mi ESE 5.8 mph - N/A   Overcast
2:00 AM 45 °F - 38 °F 69% 30.11 in 6 mi ESE 5.8 mph - -   Partly Cloudy
2:20 AM 44.6 °F 43.1 °F 39.2 °F 81% 30.09 in 6.2 mi Variable 3.5 mph - N/A   Overcast
2:50 AM 44.6 °F 43.1 °F 39.2 °F 81% 30.09 in 6.2 mi Variable 3.5 mph - N/A   Overcast
3:20 AM 44.6 °F 41.4 °F 39.2 °F 81% 30.09 in 6.2 mi SE 5.8 mph - N/A   Overcast
4:50 AM 44.6 °F 40.2 °F 37.4 °F 76% 30.06 in 6.2 mi SE 8.1 mph - N/A   Overcast
5:20 AM 44.6 °F 41.4 °F 37.4 °F 76% 30.06 in 6.2 mi ESE 5.8 mph - N/A   Overcast
5:50 AM 44.6 °F 38.8 °F 32.0 °F 61% 30.06 in 6.2 mi SE 11.5 mph - N/A   Overcast
6:20 AM 42.8 °F 38.6 °F 32.0 °F 66% 30.06 in 6.2 mi ESE 6.9 mph - N/A   Overcast
6:50 AM 42.8 °F 37.5 °F 32.0 °F 66% 30.09 in 6.2 mi ESE 9.2 mph - N/A   Overcast
7:20 AM 42.8 °F 38.0 °F 32.0 °F 66% 30.09 in 6.2 mi ESE 8.1 mph - N/A   Overcast
7:50 AM 42.8 °F 38.0 °F 32.0 °F 66% 30.09 in 6.2 mi ESE 8.1 mph - N/A   Overcast
8:00 AM 44 °F - 32 °F 52% 30.10 in 6 mi ESE 8.1 mph - -   Overcast
8:20 AM 44.6 °F 40.7 °F 32.0 °F 61% 30.09 in 6.2 mi ESE 6.9 mph - N/A   Overcast
8:50 AM 44.6 °F 40.7 °F 33.8 °F 66% 30.09 in 6.2 mi ESE 6.9 mph - N/A   Overcast
9:20 AM 46.4 °F 45.2 °F 35.6 °F 66% 30.09 in 6.2 mi Variable 3.5 mph - N/A   Overcast
9:50 AM 46.4 °F 41.9 °F 32.0 °F 57% 30.12 in 6.2 mi East 9.2 mph - N/A   Mostly Cloudy
10:20 AM 48.2 °F - 33.8 °F 58% 30.12 in 6.2 mi ESE 5.8 mph - N/A   Mostly Cloudy
10:50 AM 46.4 °F 41.9 °F 33.8 °F 62% 30.12 in 6.2 mi NNW 9.2 mph - N/A   Mostly Cloudy
11:20 AM 48.2 °F - 35.6 °F 62% 30.12 in 6.2 mi NNW 6.9 mph - N/A   Mostly Cloudy
11:50 AM 48.2 °F - 33.8 °F 58% 30.12 in 6.2 mi NW 5.8 mph - N/A   Mostly Cloudy
12:20 PM 50.0 °F - 37.4 °F 62% 30.12 in 6.2 mi NNW 8.1 mph - N/A   Mostly Cloudy
12:50 PM 50.0 °F - 35.6 °F 58% 30.09 in 6.2 mi WNW 8.1 mph - N/A   Mostly Cloudy
1:20 PM 50.0 °F - 35.6 °F 58% 30.09 in 6.2 mi West 6.9 mph - N/A   Mostly Cloudy
1:50 PM 48.2 °F - 35.6 °F 62% 30.09 in 6.2 mi West 9.2 mph - N/A   Mostly Cloudy
2:00 PM 49 °F - 35 °F 48% 30.10 in 6 mi West 9.2 mph - -   Partly Cloudy
2:20 PM 48.2 °F - 39.2 °F 71% 30.09 in 6.2 mi West 9.2 mph - N/A   Mostly Cloudy
2:50 PM 48.2 °F - 37.4 °F 66% 30.06 in 6.2 mi WNW 9.2 mph - N/A   Mostly Cloudy
3:20 PM 48.2 °F - 37.4 °F 66% 30.06 in 6.2 mi WNW 9.2 mph - N/A   Mostly Cloudy
3:50 PM 48.2 °F - 37.4 °F 66% 30.06 in 6.2 mi West 9.2 mph - N/A   Mostly Cloudy
4:20 PM 48.2 °F - 37.4 °F 66% 30.06 in 6.2 mi West 9.2 mph - N/A   Mostly Cloudy
5:20 PM 48.2 °F - 37.4 °F 66% 30.09 in 6.2 mi WSW 5.8 mph - N/A   Mostly Cloudy
5:50 PM 48.2 °F - 37.4 °F 66% 30.09 in 6.2 mi Variable 3.5 mph - N/A   Mostly Cloudy
6:20 PM 46.4 °F 45.2 °F 37.4 °F 71% 30.09 in 6.2 mi Variable 3.5 mph - N/A   Mostly Cloudy
6:50 PM 46.4 °F 45.2 °F 35.6 °F 66% 30.09 in 6.2 mi Variable 3.5 mph - N/A   Mostly Cloudy
7:20 PM 46.4 °F 45.2 °F 35.6 °F 66% 30.09 in 6.2 mi Variable 3.5 mph - N/A   Mostly Cloudy
7:50 PM 42.8 °F - 35.6 °F 76% 30.09 in 6.2 mi Calm Calm - N/A   Mostly Cloudy
8:00 PM 42 °F - 36 °F 72% 30.12 in 6 mi Calm Calm - -   Partly Cloudy
8:20 PM 41.0 °F 39.0 °F 35.6 °F 81% 30.09 in 6.2 mi Variable 3.5 mph - N/A   Mostly Cloudy
8:50 PM 41.0 °F 39.0 °F 35.6 °F 81% 30.09 in 6.2 mi Variable 3.5 mph - N/A   Mostly Cloudy
9:20 PM 39.2 °F 35.9 °F 35.6 °F 87% 30.09 in 6.2 mi SE 4.6 mph - N/A   Mostly Cloudy
9:50 PM 39.2 °F 35.9 °F 35.6 °F 87% 30.09 in 6.2 mi ESE 4.6 mph - N/A   Mostly Cloudy
10:20 PM 39.2 °F 35.9 °F 33.8 °F 81% 30.09 in 6.2 mi ESE 4.6 mph - N/A   Mostly Cloudy
10:50 PM 37.4 °F 32.8 °F 33.8 °F 87% 30.12 in 6.2 mi East 5.8 mph - N/A   Scattered Clouds
11:20 PM 37.4 °F 32.8 °F 33.8 °F 87% 30.12 in 6.2 mi ESE 5.8 mph - N/A   Mostly Cloudy
11:50 PM 37.4 °F 33.8 °F 33.8 °F 87% 30.12 in 6.2 mi ESE 4.6 mph - N/A   Mostly Cloudy